Location: Jarocin
(51.9626°N, 17.5030°E)
Time: 15:40:31
(UTC+01:00)

ISS - Visible Passes

Search period start: 25 March 2019 00:00
Search period end: 04 April 2019 01:00
Orbit: 408 x 411 km, 51.6° (Epoch: 25 March)

Date Brightness Start Highest point End Pass type
(mag) Time Alt. Az. Time Alt. Az. Time Alt. Az.
25 Mar -2.6 18:42:49 10° SSW 18:45:39 26° SSE 18:48:28 10° E visible
25 Mar -3.7 20:18:38 10° WSW 20:21:38 66° SW 20:21:38 66° SW visible
26 Mar -3.7 19:28:05 10° WSW 19:31:21 58° SSE 19:33:16 22° E visible
26 Mar -1.6 21:04:34 10° W 21:06:02 24° W 21:06:02 24° W visible
27 Mar -4.0 20:13:56 10° W 20:17:15 86° S 20:17:33 72° E visible
28 Mar -3.9 19:23:18 10° WSW 19:26:37 79° S 19:29:00 18° E visible
28 Mar -2.1 20:59:53 10° W 21:01:45 31° W 21:01:45 31° W visible
29 Mar -3.9 20:09:13 10° W 20:12:32 84° S 20:13:09 57° ESE visible
29 Mar -0.5 21:45:51 10° W 21:45:54 10° W 21:45:54 10° W visible
30 Mar -3.8 19:18:33 10° W 19:21:52 87° S 19:24:30 15° E visible
30 Mar -2.4 20:55:09 10° W 20:57:16 33° WSW 20:57:16 33° WSW visible
31 Mar -3.8 21:04:27 10° W 21:07:45 68° SSW 21:08:35 45° SE visible
31 Mar -0.6 22:41:19 10° W 22:41:21 10° W 22:41:21 10° W visible
01 Apr -3.8 20:13:46 10° W 20:17:05 80° S 20:19:54 14° ESE visible
01 Apr -2.2 21:50:27 10° W 21:52:40 28° WSW 21:52:40 28° WSW visible
02 Apr -3.2 20:59:40 10° W 21:02:51 45° SSW 21:03:59 31° SSE visible
03 Apr -3.5 20:08:56 10° W 20:12:12 60° SSW 20:15:19 11° ESE visible
03 Apr -1.7 21:45:57 10° W 21:48:04 18° SW 21:48:04 18° SW visible
